CYGFM05

Last updated on Tue Dec 16 2025 00:02:24 GMT+0000 (Coordinated Universal Time)

1 41884U 16078A 25349.31947442 .00014780 00000+0 27666-3 0 9993 2 41884 34.9605 30.2788 0010386 206.8653 153.1532 15.47738137500168
UTC large
Height (km)
Speed (km/s)
/
Latitude / Longitude
Inclination (degrees)
Orbital Period (minutes)
Azimuth
Elevation
Range (km)
Doppler Factor

Next 0 passes for location: London (51.5072 / 0.1276)

Sorry there are no passes over London.